BSAT-3B

Last updated on Jan. 15, 2021, 6:30 a.m. UTC

1 37207U 10056B   21014.90326517 -.00000357  00000-0  00000-0 0  9998
2 37207   0.0740 301.8958 0004084  13.7240 233.9521  1.00273122 32298
UTC
Height (km)
Latitude
Longitude
Inclination
Orbital Period
UTC large
Height (km)
Speed (km/s)
/
Latitude / Longitude
Inclination (degrees)
Orbital Period (minutes)
Azimuth
Elevation
Range (km)
Doppler Factor
iOS Compass Heading
iOS Angle

Next 30 passes for location: Hong Kong

Rise time Rise Azimuth (degrees) Set time Set Azimuth (degrees) Duration Max altitude (degrees)

No matching passes for this satellites